Appleton, WI

9:51 AM CDT on October 19, 2019 (GMT -0500)
Outagamie County Regional

Weather History for KATW - August, 2019

Change the Weather History Date:

Saturday, August 24, 2019

  Actual Average Record
Temperature  
Mean Temperature 62 °F -  
Max Temperature 73 °F 77 °F 100 °F (1948)
Min Temperature 51 °F 59 °F 44 °F (1987)
Degree Days  
Heating Degree Days 3    
Growing Degree Days 12 (Base 50)    
Moisture  
Dew Point 47 °F    
Average Humidity 64    
Maximum Humidity 100    
Minimum Humidity 41    
Precipitation  
Precipitation 0.00 in - - ()
Sea Level Pressure  
Sea Level Pressure 30.28 in    
Wind  
Wind Speed 5 mph ()    
Max Wind Speed 10 mph    
Max Gust Speed -    
Visibility 10.0 miles    
Events      
Averages and records for this station are not official NWS values.
T = Trace of Precipitation, MM = Missing Value Source: Averaged Metar Reports

Daily Weather History Graph

Daily Weather History Graph

Search for Another Location

Airport or City:

Astronomy

Aug. 24, 2019 Rise Set
Actual Time 6:07 AM CDT 7:44 PM CDT
Civil Twilight 5:36 AM CDT 8:15 PM CDT
Nautical Twilight 4:59 AM CDT 8:51 PM CDT
Astronomical Twilight 4:19 AM CDT 9:31 PM CDT
Moon No Moon Rise 3:06 PM CDT (8/24)
Length of Visible Light 14h 38m
Length of Day
13h 37m
Last Quarter, 39% of the Moon is Illuminated
Aug 24
Last Quarter
Aug 30
New
Sep 5
First Quarter
Sep 13
Full
Sep 21
Last Quarter

Hourly Weather History & Observations

Time (CDT) Temp. Dew Point Humidity Pressure Visibility Wind Dir Wind Speed Gust Speed Precip Events Conditions
12:15 AM 55.4 °F 42.8 °F 63% 30.28 in 10.0 mi Calm Calm - N/A   Clear
12:35 AM 55.4 °F 42.8 °F 63% 30.28 in 10.0 mi ENE 3.5 mph - N/A   Clear
12:55 AM 55.4 °F 42.8 °F 63% 30.28 in 10.0 mi NE 3.5 mph - N/A   Clear
1:15 AM 57.2 °F 44.6 °F 63% 30.27 in 10.0 mi NE 4.6 mph - N/A   Clear
1:35 AM 55.4 °F 44.6 °F 67% 30.28 in 10.0 mi NE 4.6 mph - N/A   Clear
1:55 AM 55.4 °F 42.8 °F 63% 30.29 in 10.0 mi NE 4.6 mph - N/A   Clear
2:15 AM 53.6 °F 42.8 °F 67% 30.29 in 10.0 mi NNE 4.6 mph - N/A   Clear
2:35 AM 53.6 °F 42.8 °F 67% 30.30 in 10.0 mi NNE 4.6 mph - N/A   Clear
2:55 AM 53.6 °F 42.8 °F 67% 30.30 in 10.0 mi NNE 4.6 mph - N/A   Clear
3:15 AM 55.4 °F 44.6 °F 67% 30.30 in 10.0 mi NE 6.9 mph - N/A   Clear
3:35 AM 55.4 °F 44.6 °F 67% 30.30 in 10.0 mi NE 5.8 mph - N/A   Clear
3:55 AM 53.6 °F 44.6 °F 72% 30.30 in 10.0 mi NNE 5.8 mph - N/A   Clear
4:15 AM 51.8 °F 42.8 °F 71% 30.30 in 10.0 mi NNE 4.6 mph - N/A   Clear
4:35 AM 51.8 °F 42.8 °F 71% 30.31 in 10.0 mi NNE 5.8 mph - N/A   Clear
5:15 AM 51.8 °F 42.8 °F 71% 30.31 in 10.0 mi NNE 5.8 mph - N/A   Clear
5:20 AM 53.6 °F 50.0 °F 88% 30.31 in 10.0 mi NNE 5.8 mph - N/A   Scattered Clouds
5:45 AM 51.8 °F 50.0 °F 94% 30.32 in 10.0 mi NNE 5.8 mph - N/A   Scattered Clouds
6:45 AM 51.8 °F 51.8 °F 100% 30.32 in 10.0 mi NNE 6.9 mph - N/A   Scattered Clouds
7:45 AM 57.2 °F 53.6 °F 88% 30.33 in 10.0 mi ENE 6.9 mph - N/A   Scattered Clouds
8:45 AM 62.6 °F 53.6 °F 72% 30.32 in 10.0 mi ENE 6.9 mph - N/A   Scattered Clouds
9:45 AM 66.2 °F 53.6 °F 64% 30.31 in 10.0 mi East 6.9 mph - N/A   Scattered Clouds
10:45 AM 69.8 °F 53.6 °F 56% 30.31 in 10.0 mi SE 9.2 mph - N/A   Scattered Clouds
11:45 AM 71.6 °F 46.4 °F 41% 30.29 in 10.0 mi SE 8.1 mph - N/A   Mostly Cloudy
1:45 PM 73.4 °F 50.0 °F 44% 30.27 in 10.0 mi SSE 9.2 mph - N/A   Mostly Cloudy
2:45 PM 73.4 °F 51.8 °F 47% 30.26 in 10.0 mi SE 10.4 mph - N/A   Mostly Cloudy
3:45 PM 73.4 °F 51.8 °F 47% 30.24 in 10.0 mi ESE 8.1 mph - N/A   Mostly Cloudy
4:45 PM 73.4 °F 51.8 °F 47% 30.23 in 10.0 mi SE 8.1 mph - N/A   Mostly Cloudy
5:45 PM 71.6 °F 51.8 °F 50% 30.23 in 10.0 mi SE 10.4 mph - N/A   Mostly Cloudy
6:45 PM 69.8 °F 51.8 °F 53% 30.23 in 10.0 mi ESE 9.2 mph - N/A   Scattered Clouds
7:45 PM 66.2 °F 51.8 °F 60% 30.23 in 10.0 mi ESE 10.4 mph - N/A   Clear
8:45 PM 64.4 °F 51.8 °F 64% 30.23 in 10.0 mi Variable 4.6 mph - N/A   Clear
9:45 PM 62.6 °F 50.0 °F 63% 30.24 in 10.0 mi Calm Calm - N/A   Clear
10:45 PM 60.8 °F 50.0 °F 68% 30.23 in 10.0 mi Calm Calm - N/A   Clear
10:55 PM 60.8 °F 44.6 °F 55% 30.23 in 10.0 mi ESE 3.5 mph - N/A   Clear
11:15 PM 60.8 °F 44.6 °F 55% 30.22 in 10.0 mi East 4.6 mph - N/A   Clear
11:35 PM 59.0 °F 44.6 °F 59% 30.22 in 10.0 mi East 4.6 mph - N/A   Clear
11:55 PM 59.0 °F 46.4 °F 63% 30.22 in 10.0 mi ESE 4.6 mph - N/A   Clear